Location: Maynard F. Jordan Observatory
(44.9000°N, 68.6700°W)
Time: 15:54:39
(UTC-05:00)

Cosmos 2297 Rocket - Visible Passes

Search period start: 21 December 2014 00:00
Search period end: 31 December 2014 00:00
Orbit: 838 x 845 km, 71.0° (Epoch: 20 December)

Date Brightness Start Highest point End Pass type
(mag) Time Alt. Az. Time Alt. Az. Time Alt. Az.
21 Dec 3.3 17:15:06 10° SW 17:20:25 41° WNW 17:25:47 10° NNE visible
22 Dec 3.3 17:00:00 10° SW 17:05:22 43° WNW 17:10:46 10° NNE visible
23 Dec 3.2 16:44:55 10° SW 16:50:19 45° WNW 16:55:46 10° NNE visible
23 Dec 4.8 18:35:09 10° NW 18:35:57 10° NW 18:36:44 10° NNW visible
24 Dec 3.1 16:29:50 10° SW 16:35:16 47° WNW 16:40:45 10° NNE visible
24 Dec 4.8 18:19:35 10° NW 18:20:51 11° NW 18:22:07 10° NNW visible
25 Dec 4.7 18:04:09 10° NW 18:05:45 11° NW 18:07:22 10° NNW visible
26 Dec 4.7 17:48:46 10° WNW 17:50:40 12° NW 17:52:33 10° NNW visible
27 Dec 4.6 17:33:26 10° WNW 17:35:34 12° NW 17:37:42 10° NNW visible
28 Dec 4.6 17:18:08 10° WNW 17:20:29 13° NW 17:22:50 10° NNW visible
29 Dec 4.5 17:02:51 10° WNW 17:05:23 13° NW 17:07:56 10° NNW visible
30 Dec 4.5 16:47:35 10° WNW 16:50:18 14° NW 16:53:02 10° N visible
